W3ZTB Weather Reports


time (UTC)temp
C
wind
direction
speed
KPH
gust
KPH
rain 1hr
cm
rain 24hr
cm
rain mn
cm
humidity
%
barometer
mb
20260510011516 15 86 0.0 4.8 0.00 0.48 0.48 76 1010.0
20260510011006 15 87 1.6 4.8 0.00 0.48 0.48 76 1010.0
20260510010507 15 102 1.6 3.2 0.00 0.48 0.48 76 1009.9
20260510010019 15 94 0.0 3.2 0.00 0.48 0.48 75 1009.8
20260510004520 15 112 0.0 3.2 0.00 0.48 0.48 73 1009.5
20260510003506 15 115 1.6 8.0 0.00 0.48 0.48 73 1009.5
20260510002510 16 130 3.2 8.0 0.00 0.48 0.48 73 1009.6
20260510001511 16 165 3.2 6.4 0.00 0.48 0.48 72 1009.3
20260510001010 16 167 1.6 8.0 0.00 0.48 0.48 72 1009.3
20260510000017 16 144 4.8 9.7 0.00 0.48 0.48 70 1009.1
20260509235007 16 154 3.2 9.7 0.00 0.48 0.48 69 1009.2
20260509234520 17 139 3.2 9.7 0.00 0.48 0.48 69 1009.1
20260509233022 17 156 4.8 9.7 0.00 0.48 0.48 67 1009.2
20260509231007 17 151 3.2 8.0 0.00 0.48 0.48 66 1009.1
20260509230012 18 130 0.0 8.0 0.00 0.48 0.48 65 1009.1
20260509225003 18 172 3.2 8.0 0.00 0.48 0.48 65 1009.1
20260509224504 18 191 1.6 8.0 0.00 0.48 0.48 66 1009.1
20260509224003 18 132 4.8 8.0 0.00 0.48 0.48 65 1009.2
20260509223503 18 117 1.6 8.0 0.00 0.48 0.48 65 1009.2
20260509223005 18 215 3.2 6.4 0.00 0.48 0.48 66 1009.2
20260509222004 17 293 1.6 8.0 0.00 0.48 0.48 67 1009.2
20260509221526 17 231 4.8 8.0 0.00 0.48 0.48 66 1009.2
20260509220009 17 270 4.8 8.0 0.00 0.48 0.48 66 1009.2
20260509214515 17 117 3.2 8.0 0.00 0.48 0.48 66 1009.4
20260509214006 17 174 3.2 8.0 0.00 0.48 0.48 66 1009.4
20260509213006 17 167 4.8 9.7 0.00 0.48 0.48 67 1009.5
20260509212502 17 148 6.4 9.7 0.00 0.48 0.48 67 1009.5
20260509212007 17 88 3.2 9.7 0.00 0.48 0.48 67 1009.5
20260509211513 17 171 4.8 8.0 0.00 0.48 0.48 67 1009.5
20260509210008 16 118 1.6 6.4 0.00 0.48 0.48 74 1009.6
20260509204514 15 90 1.6 3.2 0.00 0.48 0.48 76 1010.0
20260509204007 15 56 0.0 3.2 0.00 0.48 0.48 77 1010.1
20260509203018 15 53 0.0 4.8 0.00 0.48 0.48 77 1010.2
20260509201506 15 52 1.6 6.4 0.00 0.48 0.48 78 1010.0
20260509201001 15 37 3.2 6.4 0.00 0.48 0.48 78 1009.8
20260509200503 15 64 3.2 6.4 0.00 0.48 0.48 79 1009.6
20260509200006 15 94 3.2 6.4 0.00 0.48 0.48 79 1009.6
20260509195004 15 34 4.8 6.4 0.00 0.48 0.48 77 1010.0
20260509194518 15 77 3.2 6.4 0.00 0.48 0.48 75 1010.3
20260509193014 16 41 1.6 3.2 0.00 0.48 0.48 74 1010.1
20260509192009 15 262 0.0 4.8 0.00 0.48 0.48 74 1010.5
20260509191520 15 297 0.0 4.8 0.00 0.48 0.48 73 1010.6
20260509191008 15 218 0.0 4.8 0.00 0.48 0.48 76 1010.7
20260509190008 15 93 1.6 8.0 0.00 0.48 0.48 78 1010.8
20260509185503 15 165 1.6 8.0 0.00 0.48 0.48 77 1011.0
20260509185003 15 117 0.0 8.0 0.00 0.48 0.48 79 1011.1
20260509184527 14 152 1.6 8.0 0.00 0.48 0.48 79 1011.3
20260509183012 14 212 3.2 8.0 0.00 0.48 0.48 80 1011.2
20260509181015 13 42 1.6 4.8 0.00 0.48 0.48 84 1011.1
20260509180024 13 105 0.0 3.2 0.00 0.48 0.48 86 1011.0
20260509174524 12 139 0.0 1.6 0.00 0.48 0.48 85 1011.3
20260509174008 12 144 0.0 1.6 0.00 0.48 0.48 86 1011.4
20260509172505 12 211 0.0 3.2 0.00 0.48 0.48 87 1011.8
20260509171520 12 221 0.0 6.4 0.00 0.48 0.48 87 1011.8
20260509170507 12 225 1.6 6.4 0.03 0.48 0.48 86 1012.0
20260509170032 12 218 1.6 6.4 0.05 0.48 0.48 87 1011.9
20260509165506 12 198 1.6 6.4 0.05 0.48 0.48 87 1012.0
20260509164526 12 181 4.8 9.7 0.10 0.48 0.48 87 1011.9
20260509164014 12 191 3.2 8.0 0.13 0.48 0.48 88 1011.8
20260509163010 12 231 1.6 6.4 0.20 0.48 0.48 88 1011.6
20260509162503 11 169 1.6 4.8 0.23 0.48 0.48 88 1011.4
20260509160504 11 18 4.8 11.3 0.36 0.46 0.46 86 1011.3
20260509155505 11 110 1.6 6.4 0.36 0.43 0.43 86 1011.5
20260509154007 11 228 0.0 3.2 0.30 0.36 0.36 83 1012.3
20260509150503 12 234 1.6 3.2 0.10 0.10 0.10 80 1012.5
20260509150015 12 209 1.6 3.2 0.10 0.10 0.10 80 1012.4
20260509145503 12 222 1.6 3.2 0.08 0.08 0.08 79 1012.4
20260509145008 12 272 1.6 4.8 0.08 0.08 0.08 79 1012.4
20260509144006 12 162 1.6 4.8 0.05 0.05 0.05 78 1012.2
20260509143508 12 165 3.2 4.8 0.05 0.05 0.05 75 1012.2
20260509142506 12 176 1.6 4.8 0.00 0.00 0.00 75 1012.1
20260509142012 13 218 0.0 4.8 0.00 0.00 0.00 75 1012.1
20260509141535 13 156 1.6 8.0 0.00 0.00 0.00 74 1012.1
20260509140026 13 152 3.2 6.4 0.00 0.00 0.00 71 1011.9
20260509135506 13 169 0.0 6.4 0.00 0.00 0.00 72 1011.9
20260509135007 13 183 3.2 6.4 0.00 0.00 0.00 73 1011.9
20260509134518 12 258 0.0 9.7 0.00 0.00 0.00 74 1011.9
20260509134001 12 212 1.6 9.7 0.00 0.00 0.00 74 1011.8
20260509132504 12 174 3.2 8.0 0.00 0.00 0.00 76 1011.8
20260509132002 12 202 1.6 6.4 0.00 0.00 0.00 76 1011.8
20260509131004 12 109 4.8 6.4 0.00 0.00 0.00 75 1011.7
20260509130504 12 137 3.2 4.8 0.00 0.00 0.00 77 1011.5
20260509130008 12 141 1.6 6.4 0.00 0.00 0.00 76 1011.4
20260509125504 12 60 3.2 8.0 0.00 0.00 0.00 77 1011.1
20260509125008 12 64 4.8 9.7 0.00 0.00 0.00 77 1011.1
20260509124529 12 65 4.8 9.7 0.00 0.00 0.00 77 1011.2
20260509124004 12 56 4.8 8.0 0.00 0.00 0.00 77 1011.1
20260509123504 12 56 3.2 6.4 0.00 0.00 0.00 76 1011.4
20260509121004 12 266 1.6 3.2 0.00 0.00 0.00 74 1011.8
20260509120507 12 267 0.0 1.6 0.00 0.00 0.00 73 1011.7
20260509115505 12 155 0.0 3.2 0.00 0.00 0.00 73 1011.6
20260509115004 12 62 1.6 3.2 0.00 0.00 0.00 72 1011.4
20260509114524 12 63 1.6 3.2 0.00 0.00 0.00 72 1011.3
20260509114006 12 36 0.0 3.2 0.00 0.00 0.00 72 1011.4
20260509113504 12 266 0.0 3.2 0.00 0.00 0.00 72 1011.5
20260509112505 12 61 3.2 3.2 0.00 0.00 0.00 73 1011.1
20260509112007 12 269 0.0 3.2 0.00 0.00 0.00 73 1011.3
20260509111524 11 269 1.6 3.2 0.00 0.00 0.00 73 1011.3
20260509111007 11 83 1.6 3.2 0.00 0.00 0.00 73 1011.1
20260509110504 11 63 3.2 4.8 0.00 0.00 0.00 73 1011.0
20260509110018 11 250 1.6 4.8 0.00 0.00 0.00 73 1011.4
20260509105505 11 54 1.6 4.8 0.00 0.00 0.00 73 1010.9
20260509105005 11 72 1.6 8.0 0.00 0.00 0.00 73 1010.8
20260509104510 11 110 4.8 8.0 0.00 0.00 0.00 73 1010.9
20260509104004 11 64 3.2 4.8 0.00 0.00 0.00 72 1010.9
20260509103503 11 65 0.0 3.2 0.00 0.00 0.00 72 1011.0
20260509103017 11 58 1.6 3.2 0.00 0.00 0.00 72 1011.0
20260509102506 11 344 1.6 4.8 0.00 0.00 0.00 72 1011.1
20260509102009 11 37 1.6 4.8 0.00 0.00 0.00 72 1010.9
20260509101523 11 62 3.2 4.8 0.00 0.00 0.00 71 1010.9
20260509101005 11 52 1.6 3.2 0.00 0.00 0.00 71 1010.9
20260509100507 11 68 1.6 4.8 0.00 0.00 0.00 71 1010.8
20260509100028 11 58 1.6 4.8 0.00 0.00 0.00 71 1010.9
20260509095507 12 53 3.2 4.8 0.00 0.00 0.00 70 1010.8
20260509095005 12 94 0.0 3.2 0.00 0.00 0.00 70 1010.8
20260509094506 12 108 1.6 3.2 0.00 0.00 0.00 70 1010.8
20260509094001 12 108 0.0 4.8 0.00 0.00 0.00 70 1010.8
20260509093504 12 78 1.6 4.8 0.00 0.00 0.00 69 1010.9
20260509093019 12 39 1.6 4.8 0.00 0.00 0.00 69 1011.0
20260509092504 12 75 1.6 4.8 0.00 0.00 0.00 69 1010.9
20260509092004 12 59 0.0 6.4 0.00 0.00 0.00 69 1011.0
20260509091520 12 63 3.2 9.7 0.00 0.00 0.00 69 1011.0
20260509091008 12 56 3.2 9.7 0.00 0.00 0.00 69 1010.9
20260509090507 12 105 3.2 8.0 0.00 0.00 0.00 69 1010.9
20260509090026 12 103 4.8 8.0 0.00 0.00 0.00 69 1011.0
20260509085507 12 90 1.6 4.8 0.00 0.00 0.00 68 1010.9
20260509085007 12 84 1.6 6.4 0.00 0.00 0.00 68 1010.9
20260509084523 12 121 0.0 6.4 0.00 0.00 0.00 68 1011.0
20260509084007 12 153 3.2 6.4 0.00 0.00 0.00 68 1011.1
20260509083503 12 59 1.6 8.0 0.00 0.00 0.00 67 1011.1
20260509083007 12 112 3.2 8.0 0.00 0.00 0.00 67 1011.2
20260509082506 12 122 1.6 9.7 0.00 0.00 0.00 66 1011.1
20260509082007 12 109 1.6 9.7 0.00 0.00 0.00 66 1011.1
20260509081531 12 116 3.2 9.7 0.00 0.00 0.00 66 1011.1
20260509081010 12 97 0.0 6.4 0.00 0.00 0.00 66 1011.1
20260509080507 12 62 1.6 6.4 0.00 0.00 0.00 66 1011.1
20260509080017 12 79 1.6 6.4 0.00 0.00 0.00 66 1011.3
20260509075510 12 110 3.2 4.8 0.00 0.00 0.00 66 1011.3
20260509075007 12 12 0.0 1.6 0.00 0.00 0.00 66 1011.3
20260509074524 12 12 0.0 1.6 0.00 0.00 0.00 66 1011.3
20260509074008 12 56 0.0 1.6 0.00 0.00 0.00 66 1011.3
20260509073507 12 72 0.0 1.6 0.00 0.00 0.00 66 1011.3
20260509073025 12 93 0.0 1.6 0.00 0.00 0.00 65 1011.3
20260509072515 12 94 0.0 3.2 0.00 0.00 0.00 65 1011.3
20260509072013 12 110 1.6 6.4 0.00 0.00 0.00 65 1011.4
20260509071513 12 64 1.6 6.4 0.00 0.00 0.00 66 1011.4
20260509071003 12 34 1.6 4.8 0.00 0.00 0.00 66 1011.5
20260509070503 12 115 1.6 4.8 0.00 0.00 0.00 66 1011.6
20260509070014 12 34 1.6 4.8 0.00 0.00 0.00 66 1011.6
20260509065502 12 58 3.2 4.8 0.00 0.00 0.00 66 1011.5
20260509065002 12 48 1.6 4.8 0.00 0.00 0.00 66 1011.6
20260509064504 12 60 1.6 4.8 0.00 0.00 0.00 66 1011.6
20260509064003 12 66 1.6 3.2 0.00 0.00 0.00 66 1011.7
20260509063504 12 53 0.0 3.2 0.00 0.00 0.00 66 1011.8
20260509063005 12 84 0.0 4.8 0.00 0.00 0.00 66 1011.8
20260509062503 12 72 0.0 4.8 0.00 0.00 0.00 66 1011.8
20260509062003 12 75 0.0 3.2 0.00 0.00 0.00 66 1011.8
20260509061508 12 39 0.0 1.6 0.00 0.00 0.00 66 1011.9
20260509061006 12 39 0.0 4.8 0.00 0.00 0.00 66 1011.8
20260509060505 12 56 1.6 4.8 0.00 0.00 0.00 66 1011.7
20260509060015 12 25 1.6 3.2 0.00 0.00 0.00 66 1011.8
20260509055504 12 4 1.6 3.2 0.00 0.00 0.00 66 1011.9
20260509055006 12 31 0.0 6.4 0.00 0.00 0.00 66 1011.9
20260509054003 12 53 3.2 6.4 0.00 0.00 0.00 65 1011.8
20260509053503 12 41 4.8 6.4 0.00 0.00 0.00 65 1011.9
20260509053008 13 53 3.2 6.4 0.00 0.00 0.00 65 1011.9
20260509052504 13 61 1.6 8.0 0.00 0.00 0.00 65 1011.9
20260509052003 13 64 3.2 8.0 0.00 0.00 0.00 64 1012.0
20260509051505 13 105 1.6 4.8 0.00 0.00 0.00 65 1012.0
20260509051004 13 56 3.2 6.4 0.00 0.00 0.00 64 1012.1
20260509050504 13 60 3.2 6.4 0.00 0.00 0.00 64 1012.2
20260509050032 13 60 1.6 6.4 0.00 0.00 0.00 65 1012.2
20260509045504 13 60 3.2 6.4 0.00 0.00 0.00 65 1012.2
20260509045004 13 70 3.2 4.8 0.00 0.00 0.00 65 1012.3
20260509044517 13 70 1.6 4.8 0.00 0.00 0.00 65 1012.2
20260509044006 13 32 3.2 4.8 0.00 0.00 0.00 65 1012.3
20260509043504 13 44 3.2 4.8 0.00 0.00 0.00 65 1012.3
20260509043025 13 68 3.2 4.8 0.00 0.00 0.00 65 1012.2
20260509042503 13 72 0.0 1.6 0.00 0.00 0.00 64 1012.2
20260509042005 13 56 0.0 6.4 0.00 0.00 0.00 64 1012.1
20260509041507 13 50 3.2 6.4 0.00 0.00 0.00 63 1012.2
20260509041004 13 41 1.6 4.8 0.00 0.00 0.00 62 1012.2
20260509040506 14 53 3.2 4.8 0.00 0.00 0.00 60 1012.2
20260509040005 14 76 1.6 4.8 0.00 0.00 0.00 60 1012.2
20260509035506 14 88 1.6 4.8 0.00 0.00 0.00 59 1012.3
20260509035008 14 66 3.2 4.8 0.00 0.00 0.00 59 1012.3
20260509034512 14 50 1.6 3.2 0.00 0.00 0.00 60 1012.5
20260509034011 14 66 0.0 1.6 0.00 0.00 0.00 61 1012.5
20260509033505 15 139 0.0 4.8 0.00 0.00 0.00 60 1012.6
20260509033014 15 140 1.6 4.8 0.00 0.00 0.00 60 1012.7
20260509032507 15 143 0.0 4.8 0.00 0.00 0.00 62 1012.7
20260509032007 15 99 0.0 4.8 0.00 0.00 0.00 62 1012.5
20260509031528 15 65 1.6 3.2 0.00 0.00 0.00 62 1012.5
20260509031003 15 60 1.6 3.2 0.00 0.00 0.00 62 1012.6
20260509030503 15 153 0.0 1.6 0.00 0.00 0.00 60 1012.7
20260509030015 15 197 0.0 4.8 0.00 0.00 0.00 60 1012.7
20260509025503 15 197 0.0 4.8 0.00 0.00 0.00 60 1012.7
20260509025003 15 193 1.6 4.8 0.00 0.00 0.00 61 1012.7
20260509024508 15 147 0.0 6.4 0.00 0.00 0.00 64 1012.6
20260509024004 15 211 1.6 6.4 0.00 0.00 0.00 64 1012.5
20260509023505 15 185 1.6 3.2 0.00 0.00 0.00 62 1012.5
20260509023024 14 256 0.0 1.6 0.00 0.00 0.00 58 1012.3
20260509022507 14 84 0.0 1.6 0.00 0.00 0.00 58 1012.3
20260509022010 14 86 0.0 1.6 0.00 0.00 0.00 58 1012.2
20260509021517 15 86 0.0 1.6 0.00 0.00 0.00 58 1012.2
20260509021007 15 86 0.0 3.2 0.00 0.00 0.00 58 1012.1
20260509020506 15 86 0.0 3.2 0.00 0.00 0.00 58 1012.1
20260509020020 15 56 0.0 3.2 0.00 0.00 0.00 57 1012.2
20260509015503 15 46 1.6 4.8 0.00 0.00 0.00 57 1012.2
20260509015003 15 41 3.2 4.8 0.00 0.00 0.00 57 1012.2
20260509014508 15 32 1.6 4.8 0.00 0.00 0.00 57 1012.3
20260509014002 15 58 0.0 4.8 0.00 0.00 0.00 57 1012.2
20260509013503 15 44 3.2 4.8 0.00 0.00 0.00 57 1012.2
20260509013012 15 103 0.0 1.6 0.00 0.00 0.00 57 1012.2
20260509012503 15 103 0.0 1.6 0.00 0.00 0.00 56 1012.2
20260509012007 15 103 0.0 1.6 0.00 0.00 0.00 57 1012.1